Hourly Data Report for November 05, 2019

All times are specified in Local Standard Time (LST). Add 1 hour to adjust for Daylight Saving Time where and when it is observed.

SATURNA ISLAND CS
BRITISH COLUMBIA
Current Station Operator: ECCC - MSC

48°47'02.067" N
123°02'41.082" W
24.40 m
1017101
71473
WEZ

Download Data

Hourly Data (November 2019)
Hourly Data Report for November 5, 2019
TIME Temp Definition
°C
Dew Point Definition
°C
Rel Hum Definition
%
Wind Dir Definition
10's deg

Wind Spd Definition
km/h
Visibility Definition
km
Stn Press Definition
kPa
Hmdx Definition


Wind Chill Definition


Weather Definition


00:00 9.6 8.8 95 0 1   102.00     LegendNANA
01:00 9.4 8.5 94 9 3   102.00     LegendNANA
02:00 9.2 8.4 95 2 6   102.01     LegendNANA
03:00 9.0 8.3 96 3 5   101.98     LegendNANA
04:00 9.0 8.4 96 3 6   101.97     LegendNANA
05:00 8.9 8.2 96 36 2   101.99     LegendNANA
06:00 8.8 8.1 96 32 1   101.99     LegendNANA
07:00 8.6 7.9 96 1 5   101.98     LegendNANA
08:00 8.9 8.2 95 36 5   102.00     LegendNANA
09:00 9.1 7.6 90 2 8   102.03     LegendNANA
10:00 9.3 7.7 90 35 5   102.03     LegendNANA
11:00 9.7 7.5 86 35 6   102.04     LegendNANA
12:00 10.1 7.6 85 34 5   102.02     LegendNANA
13:00 10.0 7.5 84 32 4   101.95     LegendNANA
14:00 10.2 7.4 83 25 2   101.96     LegendNANA
15:00 9.7 7.8 88 35 2   101.93     LegendNANA
16:00 9.3 7.5 88 27 1   101.92     LegendNANA
17:00 9.0 7.4 89 30 3   101.90     LegendNANA
18:00 8.4 7.1 92 30 3   101.91     LegendNANA
19:00 8.4 7.5 94 31 3   101.91     LegendNANA
20:00 8.4 7.6 94 25 3   101.95     LegendNANA
21:00 8.4 7.6 94 29 4   101.97     LegendNANA
22:00 8.5 7.6 95 30 6   102.03     LegendNANA
23:00 8.4 7.6 94 27 4   102.03     LegendNANA

Notes on Data Quality.

Legend

  • E = Estimated
  • M = Missing
  • NA = Not Available
Date modified: